Cosmos 1766 - Orbit

View from above orbital plane
View from above orbital plane
View from above satellite
View from above satellite

Ground track
Ground track

The orbit data is extracted from the following two-line orbital elements,

1 16881U 86055A   13168.52003677  .00000814  00000-0  57938-4 0  6140
2 16881 082.5105 006.2864 0013316 027.5499 332.6430 15.03270776461384
Epoch (UTC): 17 June 2013 12:28:51
Eccentricity: 0.0013316
inclination: 82.5105°
perigee height: 547 km
apogee height: 566 km
right ascension of ascending node: 6.2864°
argument of perigee: 27.5499°
revolutions per day: 15.03270776
mean anomaly at epoch: 332.6430°
orbit number at epoch: 46138

The dashed part of the orbit path shows where the satellite is in the earth's shadow,  

Developed and maintained by Chris Peat, Heavens-Above GmbH. Please read the updated FAQ before sending e-mail. Imprint. DLR